HORS 4 (RS82S)

Last updated on Mon Sep 15 2025 00:03:09 GMT+0000 (Coordinated Universal Time)

1 61754U 24199V 25257.26709203 .00014868 00000+0 39955-3 0 9998 2 61754 97.3370 125.9595 0009371 191.4184 168.6850 15.37964617 94958
UTC large
Height (km)
Speed (km/s)
/
Latitude / Longitude
Inclination (degrees)
Orbital Period (minutes)
Azimuth
Elevation
Range (km)
Doppler Factor

Next 0 passes for location: London (51.5072 / 0.1276)

Sorry there are no passes over London.